Location: Unspecified
(0.0000°N, 0.0000°E)
Time: 05:16:40
(UTC+00:00)

Safir 2 - Pass Details

Date: 19 May 2026
Orbit: 804 x 808 km, 99.0° (Epoch: 11 June)

Event Time Altitude Azimuth Distance (km) Brightness Sun altitude
Rises 04:15:18 0° 18° (NNE) 3,301 11.9 -23.7°
Reaches altitude 10° 04:17:39 10° 21° (NNE) 2,373 11.1 -23.2°
Maximum altitude 04:22:51 65° 103° (ESE) 880 8.4 -22.0°
Enters shadow 04:27:51 11° 184° (S) 2,303 10.2 -20.8°
